AO-07 1 07530U 74089B 23054.73626088 -.00000044 00000-0 13979-4 0 9999 2 07530 101.9382 40.6881 0011946 281.2440 253.6021 12.53661393209199 UO-11 1 14781U 84021B 23054.56203173 .00002200 00000-0 26800-3 0 9990 2 14781 97.6463 36.0102 0007331 205.0746 155.0114 14.84348950 77285 AO-16 1 20439U 90005D 23054.51506203 .00000258 00000-0 11123-3 0 9994 2 20439 98.8753 41.8832 0010874 170.6975 303.2408 14.33021011728622 LO-19 1 20442U 90005G 23054.51652721 .00000279 00000-0 11819-3 0 9990 2 20442 98.8310 28.6877 0012278 147.4400 212.7543 14.33174189729060 HUBBLE 1 20580U 90037B 23054.13832940 .00005284 00000-0 28881-3 0 9997 2 20580 28.4703 306.2592 0002257 229.0328 257.9226 15.12066264604174 MET-2/21 1 22782U 93055A 23054.46198931 .00000028 00000-0 11540-4 0 9993 2 22782 82.5520 175.0233 0022219 6.3581 63.2684 13.83873491488720 AO-27 1 22825U 93061C 23054.87960462 .00000171 00000-0 83811-4 0 9998 2 22825 98.8582 95.8563 0009112 44.4898 315.7014 14.30250974534364 IO-26 1 22826U 93061D 23054.56166821 .00000165 00000-0 80912-4 0 9994 2 22826 98.8528 95.3990 0009441 32.0682 328.1073 14.30605053534313 FO-29 1 24278U 96046B 23054.46791955 .00000000 00000-0 37312-4 0 9998 2 24278 98.5196 48.5681 0350131 352.1086 7.4631 13.53133908309552 NOAA-15 1 25338U 98030A 23055.00230712 .00000243 00000-0 11945-3 0 9993 2 25338 98.6201 85.9241 0009285 285.2706 74.7448 14.26250154289128 GO-32 1 25397U 98043D 23054.45108806 .00000161 00000-0 90204-4 0 9993 2 25397 98.8542 11.0208 0002374 95.9337 264.2111 14.23825168279148 ISS 1 25544U 98067A 23054.78226885 .00016810 00000-0 30967-3 0 9994 2 25544 51.6389 170.2517 0005291 20.7901 76.9011 15.49263456384209 NO-44 1 26931U 01043C 23054.89670872 .00000307 00000-0 14867-3 0 9999 2 26931 67.0510 129.3339 0006327 283.4521 76.5875 14.30831564117535 SO-50 1 27607U 02058C 23054.96486400 .00001797 00000-0 26329-3 0 9997 2 27607 64.5528 251.9379 0077656 246.6913 112.6004 14.76787144 85716 CO-55 1 27844U 03031E 23054.88203531 .00000558 00000-0 26866-3 0 9995 2 27844 98.6808 63.7929 0010992 93.8784 266.3651 14.22641626 19656 CO-57 1 27848U 03031J 23054.50296557 .00000395 00000-0 19786-3 0 9990 2 27848 98.6847 63.8755 0010836 108.1490 252.0869 14.22170871 19340 RS-22 1 27939U 03042A 23054.71140663 .00001974 00000-0 35322-3 0 9990 2 27939 98.2222 200.9718 0013474 132.9296 227.3049 14.67928885 37897 NOAA-18 1 28654U 05018A 23054.76217377 .00000259 00000-0 16320-3 0 9994 2 28654 98.9204 129.6655 0013767 344.7554 15.3202 14.12869215915556 CO-58 1 28895U 05043F 23054.58879643 .00002291 00000-0 43485-3 0 9999 2 28895 98.1341 187.6848 0017276 72.0901 288.2184 14.65069788924174 CO-65 1 32785U 08021C 23054.16759816 .00004613 00000-0 47078-3 0 9996 2 32785 97.6929 22.7497 0014118 118.0594 242.2054 14.91038674803826 AAUSAT2 1 32788U 08021F 23054.47386261 .00012786 00000-0 10083-2 0 9998 2 32788 97.5563 36.7066 0008756 29.1110 331.0600 15.00844778806037 DO-64 1 32789U 08021G 23054.53208247 .00042098 00000-0 17383-2 0 9992 2 32789 97.3184 77.7519 0009526 151.6633 208.5124 15.23851979810007 CO-66 1 32791U 08021J 23054.89337470 .00007791 00000-0 71890-3 0 9990 2 32791 97.6449 28.7304 0014744 73.9792 286.3052 14.94828813804808 RS-30 1 32953U 08025A 23054.72512833 .00000024 00000-0 10000-3 0 9992 2 32953 82.5041 27.6568 0020676 72.2439 288.0895 12.43119230669553 PRISM 1 33493U 09002B 23054.97111223 .00013628 00000-0 10034-2 0 9993 2 33493 98.2498 61.7753 0018603 67.7648 292.5547 15.03352230766725 NOAA-19 1 33591U 09005A 23054.58010489 .00000201 00000-0 13345-3 0 9996 2 33591 99.1172 98.6092 0013665 198.8915 161.1751 14.12693461723649 SRMSAT 1 37841U 11058D 23054.57130134 .00000497 00000-0 12768-3 0 9993 2 37841 19.9706 176.9234 0011722 223.1096 232.8735 14.10838125586962 HRBE 1 37855U 11061F 23054.31076358 .00030099 00000-0 11111-2 0 9992 2 37855 101.7073 312.9127 0135489 27.6226 333.2108 15.19465240619226 RS-40 1 38735U 12041C 23054.54562596 .00000033 00000-0 16870-3 0 9991 2 38735 82.4750 108.9666 0017423 180.4881 179.6190 12.42591379479700 ZACUBE-1 1 39417U 13066B 23054.45201361 .00005699 00000-0 67594-3 0 9999 2 39417 97.6725 20.2865 0054387 302.5485 57.0483 14.83821182500324 Delfi-N3xt 1 39428U 13066N 23054.85603211 .00005243 00000-0 77954-3 0 9991 2 39428 97.8307 343.8559 0112896 192.3118 167.5327 14.71095923495641 GOMX-1 1 39430U 13066Q 23054.88200979 .00004013 00000-0 70919-3 0 9999 2 39430 97.7943 312.5907 0146630 332.1636 27.1737 14.61128366492999 LO-74 1 39440U 13066AA 23054.43985014 .00005361 00000-0 70759-3 0 9990 2 39440 97.7608 7.0714 0078258 38.1925 322.4795 14.78298780497349 AO-73 1 39444U 13066AE 23054.87230577 .00006711 00000-0 76888-3 0 9998 2 39444 97.6592 23.1571 0052458 287.1439 72.4036 14.85248392499405 SPROUT 1 39770U 14029E 23054.79787529 .00020512 00000-0 18089-2 0 9998 2 39770 97.9569 179.3711 0008846 327.1745 32.8535 14.96419039475162 DTUSAT-2 1 40030U 14033W 23054.77617821 .00006386 00000-0 64038-3 0 9998 2 40030 97.9591 354.0425 0009635 314.4833 45.5597 14.91658471471598 EO-80 1 40032U 14033Y 23054.41659645 .00005852 00000-0 58754-3 0 9996 2 40032 97.9590 353.6965 0009781 316.4293 43.6152 14.91645869471006 HODOYOSHI-1 1 40299U 14070B 23054.63742503 .00011660 00000-0 39602-3 0 9997 2 40299 97.2111 120.3974 0010470 329.8795 185.6145 15.30585030461425 FIREBIRD FU3 1 40377U 15003B 23054.36890597 .00075087 00000-0 14081-2 0 9994 2 40377 99.0770 342.2670 0068437 246.1733 113.2327 15.45784949446912 FIREBIRD FU4 1 40378U 15003C 23054.57140015 .00069289 00000-0 12950-2 0 9991 2 40378 99.0782 342.8047 0068311 244.7490 114.6664 15.45911660446950 GRIFEX 1 40379U 15003D 23054.66726657 .00037343 00000-0 10495-2 0 9992 2 40379 99.0816 324.9826 0095539 301.0614 58.1270 15.31892415445957 XW-2A 1 40903U 15049E 23054.86650134 .00125932 00000-0 78353-3 0 9993 2 40903 97.1362 120.9829 0005735 242.2133 238.1411 15.76573567418481 XW-2C 1 40906U 15049H 23054.96747955 .00012972 00000-0 55322-3 0 9995 2 40906 97.4965 61.9722 0011945 189.9673 199.6724 15.22995064411143 XW-2D 1 40907U 15049J 23054.97662640 .00015320 00000-0 62853-3 0 9991 2 40907 97.4952 62.2587 0011277 182.7770 207.4704 15.24274676411215 LILACSAT-2 1 40908U 15049K 23054.61110036 .00007057 00000-0 35015-3 0 9998 2 40908 97.5246 58.1211 0012980 220.1190 279.5338 15.17948814410559 XW-2E 1 40909U 15049L 23054.51673389 .00026088 00000-0 87453-3 0 9991 2 40909 97.4608 67.1479 0011097 154.6851 356.4004 15.30833553411701 XW-2F 1 40910U 15049M 23054.91505112 .00025928 00000-0 88400-3 0 9990 2 40910 97.4695 66.7535 0011913 155.9079 291.0458 15.30276511411522 XW-2B 1 40911U 15049N 23054.96762612 .00015065 00000-0 62122-3 0 9990 2 40911 97.4934 62.7504 0011310 183.9391 259.7433 15.24106634411097 DCBB 1 40912U 15049P 23054.61416829 .00030985 00000-0 92301-3 0 9999 2 40912 97.4277 70.8496 0012839 123.5536 24.8256 15.34552505412139 IO-86 1 40931U 15052B 23053.85089616 .00001771 00000-0 15599-3 0 9994 2 40931 5.9991 182.6246 0012661 112.8125 247.3917 14.77050958400426 ATHENOXAT-1 1 41168U 15077C 23054.24367328 .00063126 00000-0 17971-2 0 9994 2 41168 14.9864 18.9147 0007478 205.6249 191.8198 15.34244059398664 ChubuSat-2 1 41338U 16012B 23054.88155186 .00005384 00000-0 38572-3 0 9993 2 41338 31.0020 221.6405 0012582 128.0152 232.1622 15.02824506385315 ChubuSat-3 1 41339U 16012C 23054.82791050 .00004836 00000-0 34625-3 0 9990 2 41339 31.0105 218.9425 0012256 134.9269 3.8943 15.02784385385302 Horyu-4 1 41340U 16012D 23054.46517916 .00009701 00000-0 64578-3 0 9995 2 41340 31.0038 193.7643 0011887 180.0289 180.0349 15.05811481385550 e-st@r-II 1 41459U 16025D 23054.49029486 .00035263 00000-0 12281-2 0 9998 2 41459 98.1923 244.8459 0123138 133.0873 228.0764 15.22569675375558 AAUSAT4 1 41460U 16025E 23054.53677911 .00064562 00000-0 16091-2 0 9994 2 41460 98.1738 254.2632 0090351 97.4940 288.6887 15.35813550376210 LO-87 1 41557U 16033B 23054.55080550 .00044242 00000-0 91583-3 0 9992 2 41557 97.3848 159.1732 0009391 196.1191 280.6150 15.45603615375992 NuSat2 1 41558U 16033C 23054.86197332 .00049261 00000-0 95513-3 0 9997 2 41558 97.4119 166.6891 0008601 185.8474 289.8824 15.47495055376355 Lapan A3 1 41603U 16040E 23054.99597574 .00003034 00000-0 13690-3 0 9996 2 41603 97.1797 85.7641 0013015 3.6667 57.7990 15.21656697370279 Pratham 1 41783U 16059A 23054.55466548 .00000866 00000-0 17379-3 0 9991 2 41783 97.8841 90.6587 0034593 100.0110 260.4999 14.63686171342353 TY-1 1 41844U 16066D 23054.60477219 .00042032 00000-0 10190-2 0 9994 2 41844 97.3788 71.7325 0013093 105.5376 46.2423 15.40858625350118 CAS-2T 1 41847U 16066G 23054.38532796 .00002386 00000-0 36373-3 0 9994 2 41847 98.5178 123.4505 0361696 178.5820 181.6485 14.39218801330439 EO-88 1 42017U 17008BX 23054.12571601 .00062914 00000-0 11232-2 0 9990 2 42017 97.2322 123.0469 0003018 73.9773 286.1811 15.49840220335658 CAS-4B 1 42759U 17034B 23054.38332714 .00010658 00000-0 57407-3 0 9993 2 42759 43.0173 27.2309 0009144 81.1688 49.2242 15.14839044314369 CAS-4A 1 42761U 17034D 23054.99276639 .00010005 00000-0 53784-3 0 9996 2 42761 43.0173 22.4359 0009696 86.2030 22.6154 15.14959987314460 NIUSat 1 42766U 17036B 23054.53576220 .00023307 00000-0 73466-3 0 9990 2 42766 97.1735 88.8221 0012963 145.5379 214.6706 15.32809279315161 Aalto 1 1 42775U 17036L 23054.51692032 .00018204 00000-0 61368-3 0 9996 2 42775 97.1686 88.1104 0012236 146.1550 214.0475 15.30705611315104 URSA MAIOR 1 42776U 17036M 23054.04213302 .00019797 00000-0 64326-3 0 9999 2 42776 97.1693 88.7121 0011844 145.5495 214.6518 15.31881140315087 Max Valier Sat 1 42778U 17036P 23054.10454283 .00019332 00000-0 60306-3 0 9992 2 42778 97.1741 91.9718 0010560 145.2323 214.9612 15.33206947315213 Pegasus 1 42784U 17036V 23054.56677814 .00033476 00000-0 90600-3 0 9991 2 42784 97.1665 94.0296 0009698 139.3076 220.8896 15.37572110315468 NUDATSat 1 42787U 17036Y 23054.30740647 .00089202 00000-0 14515-2 0 9999 2 42787 97.1656 100.8446 0007154 128.3800 231.8102 15.52329645315701 SUCHAI 1 1 42788U 17036Z 23054.58221829 .00048361 00000-0 11288-2 0 9991 2 42788 97.1653 96.6669 0008666 133.3033 226.8939 15.42021446315700 SKCUBE 1 42789U 17036AA 23054.58312470 .00040666 00000-0 10214-2 0 9993 2 42789 97.1657 95.6815 0008984 134.9445 225.2532 15.39834804315566 VZLUSAT 1 1 42790U 17036AB 23054.55773065 .00091504 00000-0 15216-2 0 9997 2 42790 97.1640 100.9558 0006542 124.6105 235.5765 15.51718118315881 VENTA 1 1 42791U 17036AC 23054.07890143 .00031884 00000-0 86004-3 0 9991 2 42791 97.1666 94.6909 0009048 137.9512 222.2430 15.37691385315446 Robusta 1B 1 42792U 17036AD 23054.66165192 .00044792 00000-0 10690-2 0 9995 2 42792 97.1645 96.6224 0008399 133.5079 226.6868 15.41370772315648 D-SAT 1 42794U 17036AF 23054.42689571 .00006357 00000-0 51925-3 0 9995 2 42794 97.4613 51.9090 0118206 324.9641 34.3843 14.94360974308934 TechnoSat 1 42829U 17042E 23054.81161668 .00002548 00000-0 25088-3 0 9995 2 42829 97.3966 259.0225 0012442 244.3529 115.6406 14.92829319305575 AO-91 1 43017U 17073E 23054.19320534 .00007395 00000-0 53016-3 0 9996 2 43017 97.6474 303.0721 0241658 85.1430 277.7329 14.84013427284260 PICSAT 1 43132U 18004X 23054.18996808 .00048501 00000-0 11075-2 0 9993 2 43132 97.3443 135.3499 0006648 178.2361 181.8912 15.42696011284886 AO-92 1 43137U 18004AC 23054.17916214 .00032596 00000-0 88758-3 0 9990 2 43137 97.3399 132.7880 0006822 185.3495 174.7677 15.37413966284741 TianYi 2 1 43155U 18008A 23054.63790256 .00017690 00000-0 80671-3 0 9995 2 43155 97.3176 110.1582 0013981 353.4194 157.6123 15.20607745281364 Zhou Enlai 1 43156U 18008B 23054.66708723 .00019547 00000-0 88971-3 0 9991 2 43156 97.3222 110.1744 0011649 355.5469 122.4824 15.20678009281295 TianYi 6 1 43158U 18008D 23054.40236293 .00015827 00000-0 76262-3 0 9990 2 43158 97.3205 107.2918 0011874 358.7726 66.5300 15.18750880281123 S-Net D 1 43186U 18014G 23054.31155342 .00004013 00000-0 33283-3 0 9994 2 43186 97.6447 320.2039 0009563 168.7089 191.4350 14.99336115276484 S-Net B 1 43187U 18014H 23054.31213093 .00004041 00000-0 33511-3 0 9998 2 43187 97.6442 320.1429 0009593 169.0761 191.0672 14.99330839276486 S-Net A 1 43188U 18014J 23054.31240632 .00004086 00000-0 33882-3 0 9998 2 43188 97.6447 320.2221 0009603 169.3703 190.7724 14.99331662276483 S-Net C 1 43189U 18014K 23054.31378269 .00004071 00000-0 33768-3 0 9994 2 43189 97.6437 320.1290 0009686 170.2438 189.8975 14.99322934275034 FMN 1 1 43192U 18015A 23055.00193476 .00382708 00000-0 21467-2 0 9999 2 43192 97.5517 216.6583 0010251 247.3258 265.9686 15.78188918282398 Shaonian Xing 1 43199U 18015H 23054.97509530 .00070257 00000-0 12630-2 0 9998 2 43199 97.5359 207.3308 0011183 226.3506 286.8360 15.49548894282144 CubeBel-1 1 43666U 18083E 23054.83188100 .00025543 00000-0 86441-3 0 9993 2 43666 97.3960 86.2919 0012031 157.6026 15.6265 15.30518633239813 Changshagaoxin 1 43669U 18083H 23055.01833344 .00022777 00000-0 83109-3 0 9998 2 43669 97.3939 81.6293 0009198 152.6963 236.2415 15.28111118239622 Ten-Koh 1 43677U 18084G 23054.52333292 .00004213 00000-0 41877-3 0 9991 2 43677 97.9933 192.5242 0015812 160.4330 199.7498 14.92158212235101 PO-101 1 43678U 18084H 23054.46974281 .00002359 00000-0 23332-3 0 9999 2 43678 98.0008 196.3178 0009696 171.1949 188.9438 14.92860921235296 QO-100 1 43700U 18090A 23054.28660472 .00000132 00000-0 00000-0 0 9997 2 43700 0.0178 180.8086 0002451 183.9304 277.1030 1.00271702 15548 Reaktor Hello World 1 43743U 18096AA 23054.23606658 .00046640 00000-0 99466-3 0 9992 2 43743 97.3285 139.1768 0012051 233.9843 126.0290 15.44683780236505 MinXSS-2 1 43758U 18099A 23054.17293272 .00007503 00000-0 61317-3 0 9997 2 43758 97.5900 120.9090 0015027 145.2796 214.9411 14.99567141230643 AO-95 1 43770U 18099N 23054.42497905 .00005812 00000-0 49232-3 0 9991 2 43770 97.5869 119.0559 0013828 150.8999 209.2997 14.98287765230561 RANGE-B 1 43772U 18099Q 23054.41129729 .00008932 00000-0 72948-3 0 9994 2 43772 97.6036 121.4196 0013744 130.9921 229.2494 14.99554666230602 RANGE-A 1 43773U 18099R 23054.24643330 .00005007 00000-0 43492-3 0 9997 2 43773 97.5792 117.2858 0014169 137.7380 222.4937 14.97375730230502 MOVE-II 1 43780U 18099Y 23054.15427637 .00009932 00000-0 78292-3 0 9992 2 43780 97.5901 120.7412 0012831 164.7832 195.3781 15.00891454230611 SNUSat 2 1 43782U 18099AA 23054.11889938 .00005950 00000-0 50373-3 0 9992 2 43782 97.5876 119.2726 0013366 135.8979 224.3313 14.98308535230545 SnugLite 1 43784U 18099AC 23054.91001927 .00006606 00000-0 55232-3 0 9994 2 43784 97.5828 119.6686 0015231 142.5675 217.6612 14.98729018230690 ITASat 1 1 43786U 18099AE 23054.40968517 .00005216 00000-0 44323-3 0 9992 2 43786 97.5924 120.0681 0015271 140.3172 219.9171 14.98194866230605 EAGLET 1 1 43790U 18099AJ 23054.22805445 .00003752 00000-0 32169-3 0 9995 2 43790 97.5897 120.4224 0013130 146.6050 213.6003 14.98048221230318 ESEO 1 43792U 18099AL 23054.48983392 .00001989 00000-0 17754-3 0 9996 2 43792 97.5850 119.4500 0013527 143.0587 217.1569 14.96991278230379 CSIM 1 43793U 18099AM 23054.41936694 .00010508 00000-0 81502-3 0 9992 2 43793 97.5875 122.1716 0018366 146.9653 213.2723 15.01427424230495 Astrocast 0.1 1 43798U 18099AS 23054.12377344 .00009405 00000-0 75398-3 0 9996 2 43798 97.5901 121.3354 0014670 120.4879 239.7795 15.00241559230652 JO-97 1 43803U 18099AX 23054.11727945 .00006882 00000-0 56949-3 0 9995 2 43803 97.5856 119.6641 0015660 142.3663 217.8660 14.99108187230598 Suomi 100 1 43804U 18099AY 23054.15873500 .00005577 00000-0 46533-3 0 9997 2 43804 97.5859 119.5628 0014215 143.6377 216.5814 14.98890755230604 Al Farabi 2 1 43805U 18099AZ 23054.61345592 .00009428 00000-0 75838-3 0 9993 2 43805 97.5960 120.8812 0013080 129.3052 230.9313 15.00130569230718 CHOMPTT 1 43855U 18104G 23054.52960041 .00023046 00000-0 69881-3 0 9990 2 43855 85.0293 243.0991 0014624 29.7117 330.4958 15.33890810233116 ISAT 1 43879U 18111D 23054.27407566 .00008582 00000-0 68683-3 0 9991 2 43879 97.6487 320.4133 0012232 170.7067 189.4386 15.00365748227243 UWE-4 1 43880U 18111E 23054.25938219 .00007558 00000-0 60510-3 0 9998 2 43880 97.6505 321.2597 0014157 192.8783 167.2082 15.00370048227276 Sparrow 1 43881U 18111F 23054.30720515 .00007719 00000-0 61232-3 0 9994 2 43881 97.6599 321.6849 0012036 206.4462 153.6149 15.00740112227292 Lume 1 1 43908U 18111AJ 23054.23946372 .00031429 00000-0 82959-3 0 9991 2 43908 97.1583 299.6843 0012754 252.5983 107.3868 15.38323343231827 FO-99 1 43937U 19003F 23054.50692280 .00040764 00000-0 99208-3 0 9997 2 43937 97.1037 84.0012 0014845 337.9657 22.0950 15.40720969228476 AstroCast 0.2 1 44083U 19018F 23054.65439337 .00041964 00000-0 11776-2 0 9990 2 44083 97.2854 114.4782 0006418 303.8203 56.2430 15.36423813216905 AISTechSat 3 1 44103U 19018AB 23054.82985170 .00023641 00000-0 71097-3 0 9998 2 44103 97.2726 114.5004 0009593 326.2080 145.0401 15.34341313217080 AISat 1 1 44104U 19018AC 23054.74513003 .00018866 00000-0 43798-3 0 9992 2 44104 97.3768 144.4591 0044715 310.7189 49.0178 15.41346359218217 Prox-1 1 44339U 19036A 23054.11634241 .00007871 00000-0 16515-2 0 9991 2 44339 24.0021 48.7739 0010308 92.2085 267.9587 14.57478044194923 Move-IIb 1 44398U 19038N 23054.46207794 .00043787 00000-0 15606-2 0 9991 2 44398 97.6571 32.9147 0015962 348.5098 11.5774 15.28660871201227 SONATE 1 44400U 19038Q 23054.47144784 .00013600 00000-0 66287-3 0 9998 2 44400 97.6738 30.0920 0021458 353.6722 6.4237 15.18253465200965 BeeSat 9 1 44412U 19038AC 23054.45194256 .00025961 00000-0 10852-2 0 9997 2 44412 97.6662 31.9407 0016791 355.8905 4.2190 15.23460517200806 JAISAT-1 1 44419U 19038F 23054.69068103 .00026123 00000-0 10790-2 0 9993 2 44419 97.6669 33.2066 0015657 352.3470 7.7525 15.23880231201210 Taurus 1 1 44530U 19059C 23054.79861338 .00007050 00000-0 18782-2 0 9999 2 44530 98.5477 161.0195 0013603 83.3137 276.9488 14.48724961182213 Duchifat 3 1 44854U 19089C 23054.40275000 .00009524 00000-0 68312-3 0 9997 2 44854 36.9638 50.2121 0006344 111.7877 38.5936 15.03864618175685 OPS-SAT 1 44878U 19092F 23054.49162543 .00029071 00000-0 10868-2 0 9994 2 44878 97.4774 242.2994 0010126 182.7615 177.3570 15.27252376176399 TO-108 1 44881U 19093C 23054.42385635 .00001664 00000-0 21502-3 0 9997 2 44881 97.8708 134.8014 0016115 88.7521 271.5527 14.82177529171949 FloripaSat 1 1 44885U 19093G 23054.83283762 .00005251 00000-0 62652-3 0 9991 2 44885 97.8756 137.3183 0014804 91.8003 268.4815 14.84603554172124 RS-44 1 44909U 19096E 23054.46868561 .00000007 00000-0 -25647-4 0 9995 2 44909 82.5176 63.5038 0218623 92.8438 269.7704 12.79718488147617 BY70-2 1 45857U 20042B 23054.57062967 .00017493 00000-0 20460-2 0 9991 2 45857 97.9341 134.4781 0008694 20.7781 339.3816 14.85113335142648 UPMSat 2 1 46276U 20061E 23054.44116231 .00009319 00000-0 42256-3 0 9994 2 46276 97.3605 124.5005 0001998 55.8627 304.2798 15.21042756136987 AmicalSat 1 46287U 20061R 23054.40597377 .00014795 00000-0 76008-3 0 9992 2 46287 97.4145 123.2444 0003274 121.1704 238.9850 15.16579420136444 SALSAT 1 46495U 20068K 23054.38813058 .00006282 00000-0 43081-3 0 9991 2 46495 97.7593 1.3892 0017104 141.1367 219.1093 15.06266139131930 BY70-3 1 46839U 20079N 23054.55289435 .00162740 00000-0 14307-2 0 9990 2 46839 97.1635 130.9014 0002910 178.1027 288.8704 15.68278571129143 CAPE 3 1 47309U 21002A 23054.93931883 .00029231 00000-0 90128-3 0 9996 2 47309 60.6797 134.2795 0035668 117.9484 242.5225 15.32859038116872 AO-109 1 47311U 21002C 23054.51062303 .00024742 00000-0 78245-3 0 9993 2 47311 60.6824 133.4619 0033592 114.7184 245.7410 15.32205557116825 MiTEE 1 1 47314U 21002F 23054.57163996 .00082666 00000-0 15237-2 0 9992 2 47314 60.6748 114.4616 0028439 99.9850 260.4461 15.48159346117177 ExoCube 2 1 47319U 21002L 23054.52486710 .00024569 00000-0 79112-3 0 9995 2 47319 60.6806 135.1365 0034174 116.9128 243.5462 15.31614419116765 UVSQ-SAT 1 47438U 21006AB 23054.65857222 .00015749 00000-0 72710-3 0 9992 2 47438 97.4017 113.6197 0011828 119.3716 240.8702 15.20233342115377 YUSAT 1 1 47439U 21006AC 23054.89626759 .00020171 00000-0 89310-3 0 9997 2 47439 97.4025 114.2644 0011420 117.9247 242.3146 15.21623062115431 SOMP 2b 1 47445U 21006AJ 23054.13651683 .00013900 00000-0 65348-3 0 9992 2 47445 97.3989 112.5196 0011700 124.7219 235.5120 15.19637484115273 IDEASSat 1 47458U 21006AX 23054.14885991 .00014164 00000-0 67187-3 0 9994 2 47458 97.4081 113.2510 0010999 123.4287 236.8002 15.19330839115265 CubeSX-Sirius-HSE 1 47951U 21022V 23054.54963171 .00011475 00000-0 69353-3 0 9990 2 47951 97.5103 313.8837 0020367 11.3472 108.7808 15.10656654105852 CubeSX-HSE 1 47952U 21022W 23054.58386868 .00011641 00000-0 70238-3 0 9996 2 47952 97.5106 313.9551 0020144 11.5526 54.5281 15.10717825105867 KSU-Cubesat 1 47954U 21022Y 23054.67748010 .00012827 00000-0 76202-3 0 9993 2 47954 97.5096 314.2923 0019855 10.6071 349.5574 15.11262855105610 GRBAlpha 1 47959U 21022AD 23054.71188741 .00011613 00000-0 69954-3 0 9990 2 47959 97.5114 314.1463 0020185 11.5013 74.1767 15.10778215104703 Orbicraft-Zorkiy 1 47960U 21022AE 23054.98383025 .00012547 00000-0 74647-3 0 9995 2 47960 97.5134 314.7030 0019983 9.7870 113.5114 15.11213994105442 STECCO 1 47962U 21022AG 23054.82374338 .00020006 00000-0 10690-2 0 9993 2 47962 97.5095 316.1161 0014646 5.3572 83.3746 15.15040169104847 DO-111 1 47963U 21022AH 23054.23581223 .00084862 00000-0 29521-2 0 9995 2 47963 97.5116 319.3436 0012050 5.4120 354.7247 15.29302184105013 MO-110 1 47964U 21022AJ 23054.24949716 .00022100 00000-0 11606-2 0 9994 2 47964 97.5106 316.0054 0016760 2.6995 357.4325 15.15602252104788 FEES 1 48082U 21022AL 23054.22483381 .00033041 00000-0 15939-2 0 9994 2 48082 97.5108 316.4209 0012808 2.2221 357.9068 15.18546087104511 CSS 1 48274U 21035A 23054.59709171 .00016772 00000-0 19480-3 0 9997 2 48274 41.4748 128.6567 0004733 306.3109 196.6188 15.61359004104063 TUBIN 1 48900U 21059X 23054.82764310 .00010280 00000-0 52481-3 0 9997 2 48900 97.5801 188.0311 0009017 317.6260 196.3766 15.16869797 91970 IT-SPINS 1 49017U 21013G 23054.10128881 .00025508 00000-0 76533-3 0 9998 2 49017 51.5931 274.8713 0007770 250.1047 109.9097 15.34266036 92146 LEDSAT 1 49069U 21073D 23054.17171756 .00009914 00000-0 58219-3 0 9991 2 49069 97.4946 127.1054 0026082 152.1336 208.1298 15.11624034 83668 CUTE 1 49263U 21088D 23054.18167186 .00009845 00000-0 67742-3 0 9990 2 49263 97.5587 122.0808 0017470 292.8301 67.1081 15.05974466 77118 TeikyoSat 4 1 49396U 21102B 23054.34240191 .00002410 00000-0 18977-3 0 9997 2 49396 97.5353 109.7963 0016349 120.4706 239.8135 15.01630466 70687 Z-Sat 1 49399U 21102E 23054.61264824 .00003749 00000-0 27520-3 0 9999 2 49399 97.5028 111.1714 0024483 96.4755 263.9260 15.03826349 70815 KOSEN 1 1 49402U 21102H 23054.87488989 .00005295 00000-0 37254-3 0 9995 2 49402 97.4950 111.7658 0023285 85.9867 274.4021 15.05260677 70902 HO-113 1 50466U 21131B 23054.60907403 .00000569 00000-0 20001-3 0 9998 2 50466 98.5586 136.5031 0005653 119.0259 241.1495 14.38694970 61025 Tevel-3 1 50988U 22002E 23054.64397837 .00019235 00000-0 89801-3 0 9996 2 50988 97.4486 122.7127 0007781 269.4627 196.1773 15.19843115 61482 Tevel-8 1 50989U 22002F 23054.79594299 .00019215 00000-0 89846-3 0 9991 2 50989 97.4511 122.9099 0007829 266.2727 232.9249 15.19789006 61509 Tevel-5 1 50998U 22002Q 23054.43663286 .00019788 00000-0 90692-3 0 9991 2 50998 97.4479 122.7752 0009240 263.9283 152.4581 15.20463671 61476 Tevel-6 1 50999U 22002R 23054.64182758 .00019760 00000-0 90528-3 0 9993 2 50999 97.4481 122.9743 0009190 263.0884 202.6304 15.20477873 61508 Tevel-1 1 51013U 22002AF 23054.39181346 .00019198 00000-0 89742-3 0 9996 2 51013 97.4490 122.4221 0007765 268.5558 220.8957 15.19800439 61441 Grizu-263a 1 51025U 22002AT 23054.14720325 .00046526 00000-0 16738-2 0 9997 2 51025 97.4644 125.1226 0010163 264.7387 95.2693 15.28411142 61545 NO-116 1 51031U 22002AZ 23054.66311738 .00029276 00000-0 12127-2 0 9996 2 51031 97.4603 124.5017 0010632 266.2832 93.7189 15.23817825 61569 IRIS-A 1 51044U 22002BN 23054.17908807 .00011012 00000-0 56580-3 0 9996 2 51044 97.4496 121.5095 0007384 276.6889 83.3504 15.16630511 61364 Tevel-7 1 51062U 22002CG 23054.45347536 .00019165 00000-0 89634-3 0 9996 2 51062 97.4508 122.5487 0007794 268.0273 148.1680 15.19781886 61451 Tevel-4 1 51063U 22002CH 23054.45668003 .00018556 00000-0 86884-3 0 9999 2 51063 97.4506 122.5433 0007831 268.3237 149.2438 15.19749340 61458 Tevel-2 1 51069U 22002CP 23054.64626727 .00019254 00000-0 89893-3 0 9992 2 51069 97.4484 122.6923 0007706 268.5143 199.3364 15.19842718 61483 DELFI-PQ 1 51074U 22002CU 23054.42675616 .00036481 00000-0 14113-2 0 9998 2 51074 97.4735 125.9596 0010802 296.2816 63.7312 15.26060696 61590 SO-115 1 51080U 22002DA 23054.15195764 .00021380 00000-0 91847-3 0 9998 2 51080 97.4750 125.0209 0011169 301.6203 58.3943 15.22645059 61503 SO-114 1 51081U 22002DB 23054.41218290 .00024442 00000-0 10462-2 0 9993 2 51081 97.4741 125.2421 0011324 300.2080 59.8035 15.22738803 61545 OreSat0 1 52017U 22026K 23054.48876566 .00018516 00000-0 85187-3 0 9994 2 52017 97.5108 56.9061 0026997 119.4225 240.9709 15.20052256 52243 Planetum 1 1 52738U 22057G 23054.87513278 .00016100 00000-0 83283-3 0 9991 2 52738 97.5260 171.2837 0007519 25.8289 334.3317 15.16301933 41462 Foresail-1 1 52766U 22057AL 23054.84880672 .00011123 00000-0 57167-3 0 9996 2 52766 97.5368 172.0401 0012748 7.3513 109.2051 15.16574781 41482 SNUGLITE 2 1 52899U 22065F 23054.38429529 .00001821 00000-0 39859-3 0 9993 2 52899 98.0490 202.5396 0007646 205.8205 154.2614 14.58854561 34262 CTIM 1 52950U 22074G 23054.65764005 .00035051 00000-0 10967-2 0 9992 2 52950 45.0034 268.9749 0011251 220.6338 139.3675 15.32532840 36127 IO-117 1 53106U 22080B 23054.12161665 -.00000003 00000-0 00000-0 0 9993 2 53106 70.1808 359.3461 0008547 213.1330 146.8795 6.42557213 14425 SelfieSat 1 53951U 22057BA 23054.27155594 .00019832 00000-0 10056-2 0 9998 2 53951 97.5314 171.0390 0009638 18.7230 341.4356 15.16944561 41386 FO-118 1 54684U 22167C 23054.43349166 .00013129 00000-0 79717-3 0 9995 2 54684 97.5427 193.1822 0014306 8.3768 80.6903 15.10546377 11484 HO-119 1 54816U 21035C 23054.54868672 .00400665 00000-0 15381-2 0 9996 2 54816 41.4772 123.1660 0017033 51.8791 308.3593 15.85315786 10488 /EX